This is the latest recevied weather packets stored in our database for station/object N7WSS. If no packets are shown the sender has not sent any weather packets the latest 10 day(s).
| Time | Temp. | Humidity | Pressure | Rain* | Wind** | Luminosity | Snow |
|---|---|---|---|---|---|---|---|
| 1777405430 | 28.33° C | 15% | 1014 hPa | 0 mm | - | - | - |
| 1777405128 | 27.78° C | 14% | 1013.9 hPa | 0 mm | - | - | - |
| 1777404826 | 26.67° C | 16% | 1014 hPa | 0 mm | - | - | - |
| 1777404523 | 27.78° C | 16% | 1013.9 hPa | 0 mm | - | - | - |
| 1777404219 | 27.78° C | 14% | 1014 hPa | 0 mm | - | - | - |
| 1777403915 | 27.78° C | 15% | 1014 hPa | 0 mm | - | - | - |
| 1777403614 | 26.67° C | 16% | 1014.1 hPa | 0 mm | - | - | - |
| 1777403309 | 26.11° C | 17% | 1014.3 hPa | 0 mm | - | - | - |
| 1777403004 | 26.67° C | 17% | 1014.5 hPa | 0 mm | - | - | - |
| 1777402700 | 26.67° C | 16% | 1014.3 hPa | 0 mm | - | - | - |
| 1777402400 | 27.22° C | 17% | 1014.7 hPa | 0 mm | - | - | - |
| 1777402098 | 26.67° C | 17% | 1014.7 hPa | 0 mm | - | - | - |
| 1777401794 | 27.22° C | 17% | 1014.5 hPa | 0 mm | - | - | - |
| 1777401488 | 26.67° C | 17% | 1014.5 hPa | 0 mm | - | - | - |
| 1777401184 | 26.67° C | 18% | 1014.9 hPa | 0 mm | - | - | - |
| 1777400880 | 25° C | 19% | 1014.8 hPa | 0 mm | - | - | - |
| 1777400576 | 26.11° C | 18% | 1014.8 hPa | 0 mm | - | - | - |
| 1777400274 | 25.56° C | 19% | 1015 hPa | 0 mm | - | - | - |
| 1777399969 | 26.11° C | 19% | 1015 hPa | 0 mm | - | - | - |
| 1777399666 | 26.67° C | 19% | 1014.9 hPa | 0 mm | - | - | - |
| 1777399363 | 25.56° C | 20% | 1015 hPa | 0 mm | - | - | - |
| 1777399061 | 25° C | 20% | 1015.1 hPa | 0 mm | - | - | - |
| 1777398758 | 25.56° C | 20% | 1015 hPa | 0 mm | - | - | - |
| 1777398455 | 25° C | 21% | 1015.2 hPa | 0 mm | - | - | - |
| 1777398152 | 25° C | 21% | 1015.3 hPa | 0 mm | - | - | - |
* Rain latest hour (hover to see other rain measurements)
** Current wind speed in m/s (hover to see current wind gust speed)